OBJECT G, 60209

Orbit data source: Space-Track

You're viewing an Uncataloged Satellite

Recently launched and/or uncataloged satellites may have evolving metadata. Metadata may include but not limited to: Owner, Maufacturer, Bus, Motor, and Mission.

OBJECT G, 60209 is an American satellite in SSO that was launched on Thu, 04 Jul 2024 UTC via an FIREFLY ALPHA launch vehicle from the Air Force Western Test Range (AFWTR). Unknown objects in Earth's orbit typically refer to objects detected orbiting the Earth but have not yet been identified or cataloged. These objects could be anything from previously untracked satellites, spent rocket stages, debris from satellite collisions, or even natural meteoroids temporarily captured by Earth's gravity.

Loading next visibility...
OBJECT G details
Identifier
60209, 2024-125G
Orbit
SSO
Last TLE update2 days ago
Origin
Flag of USUME (US)
ManufacturerUME
MissionOperational spacecraft
Bus & MotorCUBESAT 3U, Unknown motor
Mass3 kg wet, 3 kg dry
Launch date (UTC)
2024-07-04 (6 months ago)
Launch vehicle
FIREFLY ALPHA
Launch site
Air Force Western Test Range (AFWTR)
Object typeUnknown
Shape & HBRUnknown
Radar Cross SectionSmall (<0.1 m²)

Expand to show TLE details & history

TLE from 2 days ago
0 OBJECT G
1 60209U 24125G   24355.03647276  .00018130  00000-0  67759-3 0  9995
2 60209  97.2970 203.3979 0024093  32.7559 327.5169 15.27127238 25698
Epoch: 2024-12-20T00:52Z
Definitive object data (Epoch: 2024-12-20T00:52:31.246Z)
Latitude0.00005°
Longitude101.15995°
Altitude473.569 km
Speed7.637 km/s
True Right ascension13h 33m 35s
True Declination0° 00' 00"
Sunlit
Object was in daylight at TLE epoch
Visualization TLE readout
Latitude-78.23634°
Longitude140.44613°
Altitude517.046 km
Speed7.601 km/s
Apparent Right ascension02h 22m 29s
Apparent Declination-71° 33' 35"
Sunlit
Object is in daylight
Visualization observer readout
Local Sidereal Time14:52:35
Azimuth175.501° S
Elevation-58.129°
Doppler factor1
Orbital elements
Apogee altitude497.883 km
Perigee altitude464.83 km
Semi-major axis6,859.494 km
Eccentricity0.0024093
Inclination97.297°
RAAN203.3979°
Arg. of periapsis32.7559°
True anomaly327.36825°
Mean anomaly327.5169°
Eccentric anomaly327.44261°
Mean motion3.82037 °/min
BSTAR0.00067759
Orbital period94.23 mins
Loading maneuver chart data...
Loading historical data...
Loading historical data...
Loading historical data...
Loading historical data...
Loading historical data...
Loading historical data...
Loading historical data...

OBJECT G Visibility forecast

Observer location: undefined°, undefined

Span
Click to sort rows by Start time (UTC) header in descending order
Start Az.
Max El. time (UTC)
Max El. Az.
Max El.
End time (UTC)
End Az.
4 mins2024-12-22 02:12:13.545Z53.13° ENE2024-12-22 02:14:13.545Z92.873° ESE19.207°2024-12-22 02:16:13.545Z134.173° SE
4 mins2024-12-22 03:46:13.545Z322.851° NNW2024-12-22 03:47:13.545Z300.953° NW20.306°2024-12-22 03:50:13.545Z240.392° WSW
4 mins2024-12-22 14:21:13.545Z187.3° SSW2024-12-22 14:22:13.545Z217.284° SW40.194°2024-12-22 14:25:13.545Z339.334° N
|